STARLINK-1681

Last updated on Fri Nov 06 2020 00:02:03 GMT+0000 (Coordinated Universal Time)

1 46559U 20070AD 20310.75324154 .00016108 00000-0 18142-3 0 9990 2 46559 53.0025 293.3440 0001110 76.1176 283.9960 15.62750544 5575
UTC large
Height (km)
Speed (km/s)
/
Latitude / Longitude
Inclination (degrees)
Orbital Period (minutes)
Azimuth
Elevation
Range (km)
Doppler Factor

Next 0 passes for location: London (51.5072 / 0.1276)

Sorry there are no passes over London.